Location: Buchberg
(46.9333°N, 15.8500°E)
Time: 04:28:22
(UTC+00:00)

Abrixas rocket - Pass Details

Date: 14 July 2020
Orbit: 338 x 346 km, 48.4° (Epoch: 10 August)

Event Time Altitude Azimuth Distance (km) Brightness Sun altitude
Exits shadow 01:34:10 - 284° (WNW) 1,521 4.9 -13.4°
Reaches altitude 10° 01:34:45 10° 283° (WNW) 1,283 4.5 -13.3°
Maximum altitude 01:37:35 71° 200° (SSW) 362 1.7 -13.0°
Drops below altitude 10° 01:40:26 10° 115° (ESE) 1,278 4.9 -12.8°
Sets 01:42:26 0° 113° (ESE) 2,114 6.0 -12.5°
